[[{"header":{"parameterUnit":"m.s-1","parameterCategory":1,"la1":30.2991,"la2":30.254,"lo1":-89.0895,"lo2":-89.0444,"dy":0.0017,"dx":0.0017,"nx":28,"ny":28,"refTime":"2024-04-02T21:00:00:Z","depth":0,"parameterNumber":2,"parameterNumberName":"U-component_of_WINDS"},"data":[0,0,0,0,0,0,0,0,0,0,0,0,0,0,0,0,0,0,0,0,0,0,0,0,0,0,0,0,0,0,0,0,0,0,0,0,0,0,0,0,0,0,0,0,0,0,0,0,0,0,0,0,0,0,0,0,0,0,5.3424,5.3426,0,5.3608,5.361,5.3612,5.3552,5.3548,5.3544,5.354,5.3735,5.3743,5.3752,0,0,0,0,0,0,0,0,0,0,0,0,0,5.3027,5.3035,5.3424,5.3426,5.3428,5.3608,5.361,5.3613,5.3552,5.3548,5.3543,5.3538,5.3732,5.3742,5.3753,0,0,0,0,0,0,0,0,0,0,0,0,0,5.3204,5.3037,5.3423,5.342,5.3421,5.3607,5.361,5.3613,5.3553,5.3547,5.3541,5.3536,5.3728,5.3741,5.3754,5.3956,0,0,5.3795,5.3801,0,0,0,0,0,0,0,0,5.3194,5.3219,5.3418,5.342,5.3422,5.3551,5.3541,5.3729,5.3555,5.3504,5.354,5.3533,5.3679,5.3696,5.3743,5.3965,5.3974,5.3796,5.3804,5.381,5.3814,0,0,0,0,0,0,0,5.3182,5.3211,5.3497,5.3421,5.3424,5.3411,5.343,5.3577,5.3623,5.3508,5.3504,5.3526,5.3679,5.3731,5.3748,5.3977,5.3796,5.3808,5.3816,5.3821,5.4376,5.4383,0,0,0,0,0,0,5.3168,5.3201,5.3491,5.3502,5.3291,5.3423,5.3444,5.3516,5.3621,5.3631,5.3531,5.3522,5.3711,5.3732,5.3754,5.4,5.381,5.3822,5.383,5.437,5.4378,5.4385,0,0,0,0,0,0,5.3159,5.3194,5.3484,5.3351,5.3386,5.3436,5.3517,5.3522,5.3574,5.3638,5.3647,5.3575,5.3707,5.3735,5.3907,5.4005,5.3828,5.3841,5.4362,5.4372,5.4382,5.4491,0,0,0,0,0,0,5.3148,5.3191,5.3267,5.3353,5.3394,5.3631,5.3523,5.353,5.3597,5.3588,5.3682,5.3692,5.3704,5.3887,5.392,5.4021,5.3851,5.4353,5.4366,5.4378,5.4479,5.4503,5.4524,0,0,0,0,0,5.3134,5.3292,5.3271,5.3307,5.3489,5.3637,5.3661,5.367,5.3605,5.3683,5.3724,5.3689,5.3989,5.3905,5.3942,5.4048,5.4347,5.4363,5.4377,5.4468,5.4498,5.4524,0,0,0,0,0,0,5.3218,5.3303,5.3281,5.347,5.3547,5.3626,5.3725,5.3701,5.38,5.3787,5.3796,5.3818,5.3994,5.4038,5.3943,5.425,5.4159,5.4182,5.4215,5.4245,5.4267,5.4254,5.3862,0,0,0,0,0,5.3258,5.3369,5.3438,5.3598,5.3638,5.3675,5.374,5.374,5.382,5.3853,5.3907,5.3988,5.41,5.4175,5.4282,5.4484,5.4505,5.4575,5.4598,5.4617,5.4637,5.475,5.4783,5.4435,5.4435,5.4435,0,0,5.3343,5.3403,5.3473,5.3617,5.3676,5.3793,5.3702,5.383,5.3918,5.3873,5.4038,5.408,5.4172,5.436,5.4446,5.4402,5.4738,5.4636,5.465,5.4661,5.4769,5.4802,5.4831,5.4445,5.4443,5.4442,0,0,5.3558,5.3613,5.3754,5.3815,5.3905,5.3929,5.3963,5.4047,5.4073,5.4238,5.4207,5.4313,5.4506,5.4573,5.4632,5.4873,5.4846,5.4908,5.5029,5.5139,5.5166,5.519,5.5279,5.531,5.4928,5.4928,5.4928,0,5.3653,5.3826,5.383,5.396,5.4025,5.3988,5.4132,5.4192,5.4314,5.4361,5.4309,5.4552,5.461,5.4815,5.4874,5.4922,5.4963,5.4898,5.5161,5.5186,5.5209,5.5293,5.5326,5.4935,5.4935,5.4934,5.4933,0,5.3939,5.406,5.4163,5.428,5.4356,5.4493,5.452,5.4597,5.4591,5.4621,5.4792,5.4861,5.4982,5.503,5.5026,5.5235,5.5205,5.5158,5.5066,5.5249,5.5328,5.5361,5.4946,5.4943,5.4941,5.4939,0,0,5.4213,5.433,5.4368,5.4421,5.4518,5.4613,5.4749,5.4865,5.4933,5.5018,5.5134,5.5299,5.5256,5.5323,5.5326,5.5422,5.5612,5.5363,5.5366,5.5409,5.5849,5.5886,5.5923,5.5593,5.5599,5.5604,5.5842,0,5.4438,5.4674,5.4682,5.4899,5.5012,5.4979,5.5098,5.5172,5.5204,5.5306,5.5341,5.5459,5.5392,5.5433,5.5526,5.5569,5.5701,5.5551,5.5704,5.5709,5.5684,5.5964,5.6003,5.6224,5.5873,5.5878,5.5882,0,5.4731,5.4824,5.5052,5.5134,5.5182,5.5288,5.5397,5.5494,5.5578,5.5595,5.567,5.566,5.5801,5.5704,5.5901,5.5799,5.5862,5.5893,5.5901,5.5918,5.5808,5.599,5.6295,5.6329,5.5931,5.5927,5.5923,0,5.4911,5.5093,5.5254,5.53,5.5399,5.5475,5.552,5.5598,5.5668,5.5764,5.581,5.5921,5.5983,5.607,5.6091,5.6018,5.6289,5.6192,5.6309,5.6309,5.6369,5.6366,5.6691,5.6407,5.6406,5.6405,5.6405,0,5.5162,5.5304,5.5336,5.5435,5.5593,5.5601,5.5759,5.5799,5.5869,5.5977,5.5955,5.6057,5.6077,5.6185,5.6202,5.6364,5.6391,5.6411,5.6414,5.6414,5.6412,5.6457,5.6443,5.6414,5.6412,5.6411,5.6409,0,5.539,5.5417,5.559,5.567,5.5693,5.5806,5.5875,5.5972,5.6,5.6138,5.6171,5.6217,5.6343,5.6371,5.6521,5.6532,5.6725,5.6712,5.6696,5.6696,5.6812,5.6801,5.7179,5.7229,5.691,5.6913,5.6916,0,5.555,5.5658,5.5748,5.5818,5.5867,5.5979,5.605,5.6063,5.6139,5.6243,5.6328,5.645,5.6548,5.6751,5.68,5.6914,5.6906,5.703,5.6923,5.692,5.6911,5.6905,5.6917,5.7051,5.7055,5.7057,5.706,0,5.5831,5.5839,5.5941,5.6049,5.6134,5.622,5.6302,5.6361,5.6385,5.6472,5.6598,5.6675,5.6827,5.695,5.7065,5.7114,5.7093,5.7093,5.7126,5.7128,5.7115,5.7126,5.6754,5.7084,5.7082,5.708,5.7079,5.7078,5.6032,5.6127,5.6205,5.632,5.6383,5.646,5.6555,5.6595,5.67,5.6824,5.6825,5.6965,5.7047,5.72,5.7256,5.7366,5.7328,5.7376,5.7389,5.7401,5.7412,5.7096,5.7387,5.7387,5.7386,5.7385,5.7385,0,5.6314,5.6362,5.6468,5.6582,5.6674,5.6642,5.6732,5.6811,5.6933,5.7011,5.7108,5.7255,5.7374,5.7432,5.7551,5.7628,5.7622,5.7659,5.7655,5.7667,5.7439,5.7399,5.7663,5.7663,5.7663,5.7663,5.7663,5.7663,5.6471,5.6631,5.6648,5.6839,5.6888,5.7022,5.7076,5.7148,5.721,5.7375,5.7473,5.7509,5.758,5.7703,5.7812,5.7826,5.7872,5.7916,5.7925,5.7711,5.7683,5.7656,5.7619,5.7925,5.7925,5.8145,5.8147,5.8148]},{"header":{"parameterUnit":"m.s-1","parameterCategory":1,"la1":30.2991,"la2":30.254,"lo1":-89.0895,"lo2":-89.0444,"dy":0.0017,"dx":0.0017,"nx":28,"ny":28,"refTime":"2024-04-02T21:00:00:Z","depth":0,"parameterNumber":3,"parameterNumberName":"V-component_of_WINDS"},"data":[0,0,0,0,0,0,0,0,0,0,0,0,0,0,0,0,0,0,0,0,0,0,0,0,0,0,0,0,0,0,0,0,0,0,0,0,0,0,0,0,0,0,0,0,0,0,0,0,0,0,0,0,0,0,0,0,0,0,-2.1333,-2.1333,0,-2.1349,-2.135,-2.135,-2.1368,-2.1368,-2.1368,-2.1368,-2.1384,-2.1384,-2.1384,0,0,0,0,0,0,0,0,0,0,0,0,0,-2.1316,-2.1316,-2.1333,-2.1333,-2.1333,-2.1349,-2.135,-2.135,-2.1368,-2.1368,-2.1368,-2.1368,-2.1384,-2.1384,-2.1384,0,0,0,0,0,0,0,0,0,0,0,0,0,-2.1327,-2.1316,-2.1333,-2.1344,-2.1345,-2.1349,-2.135,-2.135,-2.1367,-2.1368,-2.1368,-2.1369,-2.1384,-2.1384,-2.1385,-2.1379,0,0,-2.1385,-2.1385,0,0,0,0,0,0,0,0,-2.1326,-2.1327,-2.1342,-2.1343,-2.1345,-2.1357,-2.1349,-2.1359,-2.1367,-2.1359,-2.1368,-2.1369,-2.1375,-2.1376,-2.1378,-2.1379,-2.138,-2.1385,-2.1386,-2.1386,-2.1386,0,0,0,0,0,0,0,-2.1325,-2.1327,-2.1339,-2.1342,-2.1344,-2.1348,-2.135,-2.1351,-2.1364,-2.136,-2.1361,-2.1363,-2.1375,-2.1378,-2.1378,-2.138,-2.1385,-2.1386,-2.1386,-2.1386,-2.1377,-2.1377,0,0,0,0,0,0,-2.1323,-2.1326,-2.1339,-2.134,-2.1336,-2.1348,-2.135,-2.1353,-2.1365,-2.1367,-2.1363,-2.1364,-2.1377,-2.1378,-2.1379,-2.1372,-2.1386,-2.1386,-2.1386,-2.1377,-2.1377,-2.1376,0,0,0,0,0,0,-2.1322,-2.1324,-2.1338,-2.1333,-2.1335,-2.1348,-2.135,-2.1353,-2.1355,-2.1367,-2.1369,-2.1363,-2.1377,-2.1379,-2.1379,-2.1373,-2.1386,-2.1386,-2.1378,-2.1377,-2.1377,-2.1359,0,0,0,0,0,0,-2.1322,-2.1324,-2.1322,-2.1333,-2.1336,-2.1338,-2.135,-2.1353,-2.1356,-2.1357,-2.1367,-2.1369,-2.1378,-2.1378,-2.1379,-2.1374,-2.1386,-2.1378,-2.1378,-2.1377,-2.136,-2.1358,-2.1356,0,0,0,0,0,-2.1321,-2.1316,-2.1322,-2.1323,-2.1334,-2.1337,-2.1339,-2.1349,-2.1355,-2.1353,-2.136,-2.1369,-2.1374,-2.1378,-2.1379,-2.1374,-2.1379,-2.1378,-2.1377,-2.1361,-2.1359,-2.1356,0,0,0,0,0,0,-2.1303,-2.1318,-2.1324,-2.1322,-2.1329,-2.134,-2.1338,-2.1346,-2.135,-2.1351,-2.1364,-2.1366,-2.1364,-2.1369,-2.1373,-2.1369,-2.1377,-2.1377,-2.1365,-2.1363,-2.1361,-2.1359,-2.1387,0,0,0,0,0,-2.1299,-2.1301,-2.1314,-2.1311,-2.1314,-2.1326,-2.1328,-2.1335,-2.1342,-2.1344,-2.1352,-2.1358,-2.136,-2.1362,-2.1365,-2.1361,-2.1364,-2.1359,-2.1357,-2.1355,-2.1354,-2.1352,-2.1349,-2.1373,-2.1373,-2.1373,0,0,-2.1291,-2.1299,-2.1299,-2.1308,-2.1314,-2.1315,-2.1328,-2.1329,-2.133,-2.1344,-2.1345,-2.135,-2.1358,-2.1355,-2.1355,-2.136,-2.1348,-2.1354,-2.1352,-2.1352,-2.135,-2.1348,-2.1346,-2.1373,-2.1373,-2.1373,0,0,-2.1276,-2.1283,-2.1281,-2.1286,-2.1295,-2.1303,-2.1302,-2.1313,-2.1317,-2.1318,-2.1329,-2.133,-2.1335,-2.1339,-2.1342,-2.1329,-2.1337,-2.133,-2.1319,-2.1317,-2.1315,-2.1313,-2.1308,-2.1306,-2.1329,-2.1329,-2.1329,0,-2.1264,-2.1267,-2.1279,-2.128,-2.1283,-2.1296,-2.1295,-2.1299,-2.1308,-2.131,-2.1315,-2.1321,-2.1327,-2.1326,-2.1323,-2.1325,-2.1324,-2.1329,-2.1314,-2.1313,-2.1312,-2.1307,-2.1305,-2.1328,-2.1328,-2.1328,-2.1329,0,-2.1252,-2.1254,-2.1252,-2.1261,-2.1264,-2.1263,-2.1274,-2.1276,-2.1283,-2.129,-2.129,-2.1297,-2.1302,-2.1303,-2.131,-2.1303,-2.1305,-2.1312,-2.1321,-2.1308,-2.1304,-2.1302,-2.1327,-2.1327,-2.1328,-2.1328,0,0,-2.1226,-2.1242,-2.124,-2.1244,-2.1255,-2.1256,-2.1256,-2.1261,-2.1262,-2.1268,-2.1268,-2.1271,-2.1278,-2.1281,-2.1289,-2.1287,-2.1276,-2.1295,-2.1295,-2.129,-2.1267,-2.1262,-2.1259,-2.1281,-2.1281,-2.1281,-2.1267,0,-2.1213,-2.1214,-2.1224,-2.1222,-2.1224,-2.1237,-2.1236,-2.1242,-2.1249,-2.1251,-2.1258,-2.126,-2.1269,-2.1271,-2.127,-2.1277,-2.1271,-2.1279,-2.128,-2.128,-2.1277,-2.1257,-2.1251,-2.1237,-2.1265,-2.1265,-2.1265,0,-2.1198,-2.1203,-2.12,-2.1211,-2.1212,-2.1211,-2.1217,-2.1219,-2.1226,-2.1231,-2.1234,-2.1243,-2.1243,-2.1252,-2.1252,-2.1257,-2.1258,-2.1262,-2.1262,-2.1262,-2.1271,-2.1256,-2.1233,-2.1231,-2.1262,-2.1262,-2.1263,0,-2.1178,-2.1184,-2.1184,-2.1187,-2.1199,-2.1198,-2.1203,-2.1211,-2.1213,-2.1218,-2.1219,-2.1224,-2.1226,-2.1229,-2.1238,-2.1244,-2.1237,-2.1247,-2.124,-2.124,-2.1238,-2.1238,-2.1215,-2.124,-2.124,-2.124,-2.124,0,-2.1162,-2.116,-2.1175,-2.1175,-2.1173,-2.1185,-2.1182,-2.1189,-2.1195,-2.1196,-2.1207,-2.1207,-2.122,-2.1222,-2.1229,-2.1228,-2.1229,-2.1232,-2.1234,-2.1231,-2.123,-2.1231,-2.1232,-2.1239,-2.1239,-2.1239,-2.124,0,-2.114,-2.115,-2.115,-2.1162,-2.1164,-2.1162,-2.1172,-2.1172,-2.1179,-2.118,-2.1181,-2.1192,-2.1194,-2.1204,-2.1209,-2.1214,-2.121,-2.1214,-2.1207,-2.1208,-2.1201,-2.1201,-2.1177,-2.1174,-2.1202,-2.1202,-2.1202,0,-2.1128,-2.1127,-2.1139,-2.114,-2.1144,-2.1147,-2.1149,-2.1161,-2.1163,-2.117,-2.1169,-2.1173,-2.1176,-2.1179,-2.1187,-2.1191,-2.1195,-2.1186,-2.1195,-2.1192,-2.1194,-2.1194,-2.1193,-2.1184,-2.1184,-2.1183,-2.1183,0,-2.1107,-2.1112,-2.1115,-2.112,-2.1123,-2.1127,-2.1133,-2.1133,-2.1146,-2.1147,-2.115,-2.1153,-2.1158,-2.1161,-2.1166,-2.117,-2.1178,-2.118,-2.1179,-2.1175,-2.1171,-2.1172,-2.1201,-2.118,-2.1181,-2.1181,-2.1181,-2.1181,-2.109,-2.1089,-2.1097,-2.11,-2.1105,-2.1109,-2.111,-2.1117,-2.112,-2.1125,-2.1131,-2.1133,-2.114,-2.1147,-2.1151,-2.1152,-2.1157,-2.1155,-2.1155,-2.1154,-2.1152,-2.1171,-2.1153,-2.1154,-2.1154,-2.1154,-2.1154,0,-2.1068,-2.1074,-2.1077,-2.1083,-2.1086,-2.1094,-2.11,-2.1101,-2.1103,-2.1108,-2.1111,-2.1114,-2.1117,-2.1126,-2.1129,-2.1129,-2.1132,-2.1129,-2.1129,-2.113,-2.1148,-2.1148,-2.1126,-2.1126,-2.1126,-2.1126,-2.1126,-2.1126,-2.1057,-2.1057,-2.1062,-2.1064,-2.107,-2.1072,-2.1074,-2.1078,-2.1083,-2.1085,-2.1088,-2.1094,-2.11,-2.1105,-2.1108,-2.111,-2.111,-2.1106,-2.1109,-2.1126,-2.1128,-2.1131,-2.1131,-2.1106,-2.1106,-2.1091,-2.1091,-2.1091]}]]